DW6005 Murcia ES current weather conditions

sailwx.info

Wind from 090 at 2 knots gusting 6

Air temperature 26.1° C
Dewpoint 20.7° C

Last reported at 2018-Sep-19 18:01 UTC.
Time now 2018-Sep-19 19:04 UTC

Location: N 38°03' W 001°06'.
View on Google Maps.

See reports from other nearby stations

  
Tides and Currents Weather Stations Pressure Air Temp Water Temp Dewpoint Dewpoint Depression Visibility Wind Speed Wind Dir Waves Ship Positions
date/time (UTC)wind fromknots sea level pressurealtimeterstation pressurevisibilityair tempwater tempwave heightnotes
2018-Sep-19 18:01 090 2 gusting 6 26.1
2018-Sep-19 17:46 084 3 gusting 7 26.1
2018-Sep-19 17:31 088 3 gusting 9 26.1
2018-Sep-19 17:16 072 5 gusting 8 26.7
2018-Sep-19 17:01 085 4 gusting 9 27.2
2018-Sep-19 16:46 101 6 gusting 10 27.2
2018-Sep-19 16:31 075 4 gusting 10 27.8
2018-Sep-19 16:16 074 5 gusting 12 28.3
2018-Sep-19 16:01 085 5 gusting 11 28.3
2018-Sep-19 15:46 065 6 gusting 10 28.9
2018-Sep-19 15:31 100 5 gusting 8 28.3
2018-Sep-19 15:16 109 5 gusting 8 28.9
2018-Sep-19 15:01 098 3 gusting 9 28.9
2018-Sep-19 14:46 087 4 gusting 8 29.4
2018-Sep-19 14:31 085 6 gusting 10 29.4
2018-Sep-19 14:17 077 5 gusting 9 29.4
2018-Sep-19 14:01 053 4 gusting 8 29.4
2018-Sep-19 13:46 083 4 gusting 7 30.0
2018-Sep-19 13:30 111 1 gusting 6 30.0
2018-Sep-19 13:15 078 2 gusting 7 29.4
2018-Sep-19 13:00 078 1 gusting 5 29.4
2018-Sep-19 12:46 076 4 gusting 6 29.4
2018-Sep-19 12:30 059 1 gusting 6 28.9
2018-Sep-19 12:16 094 3 gusting 7 28.9
2018-Sep-19 12:00 076 28.9
2018-Sep-19 11:45 128 0 gusting 6 28.9
2018-Sep-19 11:30 046 2 gusting 6 28.3
2018-Sep-19 11:15 113 28.3
2018-Sep-19 11:00 049 27.8
2018-Sep-19 10:45 113 27.8
2018-Sep-19 10:30 090 1 gusting 6 27.2
2018-Sep-19 10:15 047 1 gusting 4 26.7
2018-Sep-19 10:00 078 26.7
2018-Sep-19 09:45 005 26.7
2018-Sep-19 09:30 077 26.1
2018-Sep-19 09:16 005 1 gusting 3 25.6
2018-Sep-19 09:01 028 25.6
2018-Sep-19 08:45 010 0 gusting 3 25.0
2018-Sep-19 08:31 267 24.4
2018-Sep-19 08:16 246 23.9
2018-Sep-19 08:00 229 0 gusting 3 23.3
2018-Sep-19 07:45 233 22.8
2018-Sep-19 07:30 232 22.8
2018-Sep-19 07:15 232 22.2
2018-Sep-19 07:00 266 21.1
2018-Sep-19 06:45 266 21.1
2018-Sep-19 06:30 276 2 gusting 6 20.6
2018-Sep-19 06:15 226 20.6
2018-Sep-19 06:00 259 20.6
2018-Sep-19 05:45 259 20.6
2018-Sep-19 05:30 259 20.6
2018-Sep-19 05:16 252 20.6
2018-Sep-19 05:01 251 20.6
2018-Sep-19 04:46 251 21.1
2018-Sep-19 04:32 250 21.1
2018-Sep-19 04:17 259 20.6
2018-Sep-19 04:01 259 20.6
2018-Sep-19 03:47 236 21.1
2018-Sep-19 03:31 220 21.1
2018-Sep-19 03:16 265 21.1
2018-Sep-19 03:01 019 21.1
2018-Sep-19 02:45 019 21.1
2018-Sep-19 02:30 028 1 gusting 4 21.1
2018-Sep-19 02:16 334 0 gusting 5 21.7
2018-Sep-19 02:01 188 21.7
2018-Sep-19 01:46 187 21.7
2018-Sep-19 01:31 188 21.7
2018-Sep-19 01:16 193 21.7
2018-Sep-19 01:01 355 21.7
2018-Sep-19 00:45 355 22.2
2018-Sep-19 00:30 355 22.2
2018-Sep-19 00:15 355 22.2
2018-Sep-19 00:00 355 22.2
2018-Sep-18 23:45 280 22.2
2018-Sep-18 23:30 280 22.8
2018-Sep-18 23:15 280 22.8
2018-Sep-18 23:00 280 22.8
2018-Sep-18 22:45 261 22.8
2018-Sep-18 22:30 261 22.8
2018-Sep-18 22:15 253 22.8
2018-Sep-18 22:00 017 22.8
2018-Sep-18 21:45 017 22.8
2018-Sep-18 21:30 017 22.8
2018-Sep-18 21:16 017 22.8
2018-Sep-18 21:01 017 23.3
2018-Sep-18 20:47 017 22.8
2018-Sep-18 20:31 017 22.8
2018-Sep-18 20:16 017 22.8
2018-Sep-18 20:01 017 22.2
2018-Sep-18 19:46 017 22.2
2018-Sep-18 19:31 017 22.2
2018-Sep-18 19:16 032 0 gusting 5 22.2
2018-Sep-18 19:01 320 22.2
2018-Sep-18 18:46 011 0 gusting 7 23.3
2018-Sep-18 18:30 054 0 gusting 3 23.9
2018-Sep-18 18:16 051 24.4
2018-Sep-18 18:02 088 24.4
2018-Sep-18 17:46 087 1 gusting 4 24.4
2018-Sep-18 17:33 068 3 gusting 7 25.0
2018-Sep-18 17:15 084 5 gusting 11 25.6
2018-Sep-18 17:00 083 6 gusting 12 26.1
2018-Sep-18 16:46 084 7 gusting 13 26.1
2018-Sep-18 16:31 069 8 gusting 12 26.7
2018-Sep-18 16:16 082 6 gusting 13 27.2
2018-Sep-18 16:00 099 6 gusting 11 27.2
2018-Sep-18 15:45 085 3 gusting 10 27.2
2018-Sep-18 15:31 091 6 gusting 11 27.8
2018-Sep-18 15:16 069 6 gusting 10 28.3
2018-Sep-18 15:00 112 4 gusting 9 28.9
2018-Sep-18 14:45 094 2 gusting 7 28.9
2018-Sep-18 14:31 092 2 gusting 8 29.4
2018-Sep-18 14:15 103 4 gusting 8 30.0
2018-Sep-18 14:00 090 3 gusting 7 30.0
2018-Sep-18 13:45 045 30.0
2018-Sep-18 13:30 086 0 gusting 7 30.0
2018-Sep-18 13:15 102 1 gusting 5 30.0
2018-Sep-18 13:00 107 2 gusting 6 29.4
2018-Sep-18 12:45 034 1 gusting 7 28.9
2018-Sep-18 12:30 071 1 gusting 8 29.4
2018-Sep-18 12:15 071 1 gusting 6 28.9
2018-Sep-18 12:00 087 1 gusting 6 28.3
2018-Sep-18 11:45 065 2 gusting 5 28.9
2018-Sep-18 11:30 005 27.8
2018-Sep-18 11:15 098 0 gusting 6 28.3
2018-Sep-18 11:02 249 27.8
2018-Sep-18 10:46 298 27.2
2018-Sep-18 10:45 298 27.2
2018-Sep-18 10:31 288 0 gusting 4 26.7
2018-Sep-18 10:17 254 0 gusting 3 27.2
2018-Sep-18 10:01 153 27.2
2018-Sep-18 09:46 315 27.8
2018-Sep-18 09:31 038 26.7
2018-Sep-18 09:16 080 26.7
2018-Sep-18 09:00 018 26.1
2018-Sep-18 08:45 018 25.6
2018-Sep-18 08:30 018 24.4
2018-Sep-18 08:15 018 23.9
2018-Sep-18 08:00 042 23.9
2018-Sep-18 07:30 043 22.8
2018-Sep-18 07:15 043 22.2
2018-Sep-18 07:00 043 21.7
2018-Sep-18 06:45 202 21.7
2018-Sep-18 06:30 202 21.7
2018-Sep-18 06:01 202 21.7
2018-Sep-18 05:31 202 21.7
2018-Sep-18 05:16 134 21.7
2018-Sep-18 05:01 134 21.7
2018-Sep-18 04:47 134 21.7
2018-Sep-18 04:31 081 21.7
2018-Sep-18 04:16 081 21.7
2018-Sep-18 04:01 081 21.7
2018-Sep-18 03:45 081 21.7
2018-Sep-18 03:32 082 21.7
2018-Sep-18 03:15 082 22.2
2018-Sep-18 03:01 082 22.2
2018-Sep-18 02:46 082 22.2
2018-Sep-18 02:30 082 22.2
2018-Sep-18 02:00 082 22.2
2018-Sep-18 01:46 082 22.8
2018-Sep-18 01:32 082 22.2
2018-Sep-18 01:16 082 22.8
2018-Sep-18 01:01 082 22.8
2018-Sep-18 00:45 082 22.8
2018-Sep-18 00:31 082 22.8
2018-Sep-18 00:15 082 22.8
2018-Sep-18 00:00 082 22.8
2018-Sep-17 23:45 082 22.8
2018-Sep-17 23:31 082 22.8
2018-Sep-17 23:15 082 22.8
2018-Sep-17 23:00 082 23.3
2018-Sep-17 22:46 082 23.3
2018-Sep-17 22:30 082 23.3
2018-Sep-17 22:15 082 23.3
2018-Sep-17 22:00 082 23.3
2018-Sep-17 21:45 082 23.3
2018-Sep-17 21:30 082 23.3
2018-Sep-17 21:15 082 23.9
2018-Sep-17 21:00 082 23.9
2018-Sep-17 20:45 081 23.9
2018-Sep-17 20:30 090 0 gusting 3 23.9
2018-Sep-17 20:15 109 2 gusting 6 23.9
2018-Sep-17 20:00 091 1 gusting 5 23.9
2018-Sep-17 19:45 076 1 gusting 5 24.4
2018-Sep-17 19:30 063 2 gusting 5 24.4
2018-Sep-17 19:15 056 0 gusting 3 24.4